EW0538 Weather Reports


time (UTC)temp
F
wind
direction
speed
knots
gust
knots
rain 1hr
in
rain 24hr
in
rain mn
in
humidity
%
barometer
mb
20260904200135 83 153 3.5 16.5 0.00 0.00 0.00 27 1007.7
20260904195117 82 223 3.5 16.5 0.00 0.00 0.00 29 1008.0
20260904194119 81 94 5.2 13.9 0.00 0.00 0.00 29 1008.1
20260904193126 81 280 4.3 11.3 0.00 0.00 0.00 29 1008.1
20260904192125 81 140 4.3 20.0 0.00 0.00 0.00 29 1008.1
20260904191143 82 243 3.5 20.0 0.00 0.00 0.00 29 1008.3
20260904190203 83 166 3.5 15.6 0.00 0.00 0.00 28 1008.4
20260904185228 82 166 4.3 15.6 0.00 0.00 0.00 29 1008.4
20260904184252 82 167 3.5 16.5 0.00 0.00 0.00 29 1008.6
20260904183259 82 217 3.5 16.5 0.00 0.00 0.00 30 1008.8
20260904181155 82 156 3.5 13.0 0.00 0.00 0.00 30 1009.1
20260904180159 83 184 1.7 9.6 0.00 0.00 0.00 31 1009.3
20260904175150 82 150 0.0 7.0 0.00 0.00 0.00 30 1009.7
20260904174208 81 30 0.0 0.9 0.00 0.00 0.00 34 1009.8
20260904173228 79 49 0.0 3.5 0.00 0.00 0.00 35 1009.9
20260904172155 77 18 0.0 3.5 0.00 0.00 0.00 40 1010.0
20260904171121 74 9 0.0 2.6 0.00 0.00 0.00 41 1010.2
20260904170111 73 359 0.0 2.6 0.00 0.00 0.00 41 1010.5
20260904165038 72 341 0.0 1.7 0.00 0.00 0.00 41 1010.6
20260904164045 71 354 0.0 0.9 0.00 0.00 0.00 40 1010.9
20260904163014 69 6 0.0 0.9 0.00 0.00 0.00 42 1011.0
20260904162027 68 103 0.0 0.0 0.00 0.00 0.00 44 1011.2
20260904161006 66 11 0.0 0.9 0.00 0.00 0.00 45 1011.3
20260904155937 65 353 0.0 1.7 0.00 0.00 0.00 52 1011.4
20260904154909 64 120 0.0 0.0 0.00 0.00 0.00 50 1011.6
20260904153835 63 241 0.0 0.0 0.00 0.00 0.00 50 1011.7
20260904152854 63 139 0.0 0.9 0.00 0.00 0.00 49 1011.6
20260904151843 61 128 0.0 0.0 0.00 0.00 0.00 53 1011.7
20260904150831 60 347 0.0 0.0 0.00 0.00 0.00 54 1011.8
20260904145814 59 111 0.0 0.0 0.00 0.00 0.00 56 1011.9
20260904144756 58 12 0.0 0.0 0.00 0.00 0.00 59 1012.0
20260904143745 57 336 0.0 0.0 0.00 0.00 0.00 58 1012.0
20260904142808 56 141 0.0 0.0 0.00 0.00 0.00 64 1012.1
20260904141809 54 141 0.0 0.0 0.00 0.00 0.00 71 1012.1
20260904140800 52 141 0.0 0.0 0.00 0.00 0.00 75 1012.3
20260904135801 49 150 0.0 0.0 0.00 0.00 0.00 83 1012.1
20260904134814 46 150 0.0 0.0 0.00 0.00 0.00 88 1012.0
20260904133752 45 150 0.0 0.0 0.00 0.00 0.00 88 1012.0
20260904132731 44 151 0.0 0.0 0.00 0.00 0.00 90 1011.7
20260904131744 44 151 0.0 0.0 0.00 0.00 0.00 91 1011.5
20260904130724 43 155 0.0 0.0 0.00 0.00 0.00 92 1011.4
20260904125651 42 155 0.0 0.0 0.00 0.00 0.00 92 1011.3
20260904124650 43 155 0.0 0.0 0.00 0.00 0.00 91 1011.1
20260904123625 43 155 0.0 0.0 0.00 0.00 0.00 91 1011.1
20260904122617 43 155 0.0 0.0 0.00 0.00 0.00 91 1010.8
20260904121637 43 155 0.0 0.0 0.00 0.00 0.00 90 1010.7
20260904120623 44 150 0.0 0.0 0.00 0.00 0.00 90 1010.6
20260904115636 44 150 0.0 0.0 0.00 0.00 0.00 89 1010.6
20260904114626 44 125 0.0 0.0 0.00 0.00 0.00 88 1010.5
20260904113604 45 124 0.0 0.0 0.00 0.00 0.00 88 1010.4
20260904112545 45 124 0.0 0.0 0.00 0.00 0.00 88 1010.5
20260904111521 44 117 0.0 0.9 0.00 0.00 0.00 89 1010.3
20260904110500 45 67 0.0 0.0 0.00 0.00 0.00 89 1010.5
20260904105505 45 203 0.0 0.0 0.00 0.00 0.00 88 1010.3
20260904104500 45 107 0.0 0.0 0.00 0.00 0.00 88 1010.2
20260904103442 45 138 0.0 0.0 0.00 0.00 0.00 88 1010.1
20260904102423 45 253 0.0 0.0 0.00 0.00 0.00 88 1010.0
20260904101437 45 122 0.0 0.0 0.00 0.00 0.00 88 1009.9
20260904100405 45 122 0.0 0.0 0.00 0.00 0.00 87 1009.8
20260904095331 46 123 0.0 0.0 0.00 0.00 0.00 87 1009.8
20260904094306 46 134 0.0 0.0 0.00 0.00 0.00 87 1009.5
20260904093235 46 134 0.0 0.0 0.00 0.00 0.00 87 1009.4
20260904092236 46 134 0.0 0.0 0.00 0.00 0.00 87 1009.2
20260904091202 46 134 0.0 0.0 0.00 0.00 0.00 86 1009.1
20260904090851 46 134 0.0 0.0 0.00 0.00 0.00 85 1009.1
20260904084726 47 134 0.0 0.0 0.00 0.00 0.00 85 1009.1
20260904083708 47 134 0.0 0.0 0.00 0.00 0.00 85 1009.1
20260904082644 47 134 0.0 0.0 0.00 0.00 0.00 85 1009.2
20260904081636 48 134 0.0 0.0 0.00 0.00 0.00 84 1009.1
20260904080649 48 134 0.0 0.0 0.00 0.00 0.00 83 1009.1
20260904075630 48 134 0.0 0.0 0.00 0.00 0.00 81 1009.2
20260904073501 49 134 0.0 0.0 0.00 0.00 0.00 79 1009.1
20260904072511 49 134 0.0 0.0 0.00 0.00 0.00 79 1009.0
20260904071459 50 143 0.0 0.0 0.00 0.00 0.00 79 1009.1
20260904070501 50 141 0.0 0.0 0.00 0.00 0.00 78 1009.0
20260904065432 51 141 0.0 0.0 0.00 0.00 0.00 74 1008.9
20260904063338 51 158 0.0 0.0 0.00 0.00 0.00 76 1008.7
20260904061230 52 136 0.0 0.0 0.00 0.00 0.00 74 1008.6
20260904060157 52 137 0.0 0.0 0.00 0.00 0.00 75 1008.5
20260904055158 52 137 0.0 0.0 0.00 0.00 0.00 72 1008.4
20260904053102 54 13 0.0 0.0 0.00 0.00 0.00 71 1008.4
20260904052127 54 143 0.0 0.0 0.00 0.00 0.00 68 1008.3
20260904051134 54 143 0.0 0.0 0.00 0.00 0.00 69 1008.1
20260904050155 55 44 0.0 0.0 0.00 0.00 0.00 66 1008.1
20260904045121 56 44 0.0 0.0 0.00 0.00 0.00 62 1008.0
20260904044128 57 50 0.0 0.0 0.00 0.00 0.00 61 1007.9
20260904043119 57 157 0.0 0.0 0.00 0.00 0.00 57 1008.0
20260904042109 58 157 0.0 0.9 0.00 0.00 0.00 61 1008.0
20260904041110 59 156 0.0 0.0 0.00 0.00 0.00 53 1007.9
20260904040039 58 87 0.0 0.0 0.00 0.00 0.00 58 1007.9
20260904035049 59 50 0.0 0.0 0.00 0.00 0.00 57 1007.9
20260904034109 59 115 0.0 0.0 0.00 0.00 0.00 56 1007.8
20260904033122 60 115 0.0 0.0 0.00 0.00 0.00 55 1007.6
20260904032057 60 153 0.0 0.0 0.00 0.00 0.00 55 1007.5
20260904031059 61 153 0.0 0.9 0.00 0.00 0.00 53 1007.5
20260904030117 63 158 0.0 0.0 0.00 0.00 0.00 52 1007.3
20260904025122 64 162 0.0 0.0 0.00 0.00 0.00 50 1007.2
20260904024128 66 163 0.0 0.0 0.00 0.00 0.00 46 1007.1
20260904023109 68 172 0.0 0.0 0.00 0.00 0.00 40 1006.9
20260904022121 70 243 0.0 0.0 0.00 0.00 0.00 34 1006.7
20260904021110 72 115 0.0 0.0 0.00 0.00 0.00 30 1006.4
20260904020110 74 309 0.0 0.0 0.00 0.00 0.00 29 1006.3
20260904014019 75 143 0.0 2.6 0.00 0.00 0.00 26 1006.0
20260904011840 78 240 0.0 2.6 0.00 0.00 0.00 26 1005.9
20260904010811 81 144 0.0 0.9 0.00 0.00 0.00 23 1005.9
20260904004643 82 227 0.9 9.6 0.00 0.00 0.00 21 1006.0
20260904003655 82 312 0.9 0.0 0.00 0.00 0.00 22 1006.0
20260904002637 83 112 0.9 7.8 0.00 0.00 0.00 21 1006.0
20260904001608 83 221 2.6 9.6 0.00 0.00 0.00 20 1006.1
20260903235427 83 135 1.7 9.6 0.00 0.00 0.00 20 1006.2
20260903234413 84 219 1.7 9.6 0.00 0.00 0.00 18 1006.4
20260903232306 84 271 0.9 0.0 0.00 0.00 0.00 19 1006.4
20260903231237 84 167 0.0 7.0 0.00 0.00 0.00 18 1006.4
20260903225046 84 119 0.9 8.7 0.00 0.00 0.00 20 1006.7
20260903224013 83 231 3.5 12.2 0.00 0.00 0.00 18 1006.9
20260903223020 83 127 4.3 13.0 0.00 0.00 0.00 17 1006.9
20260903222014 84 193 2.6 13.0 0.00 0.00 0.00 17 1007.1
20260903221036 84 103 0.9 11.3 0.00 0.00 0.00 19 1007.0
20260903220023 83 259 1.7 11.3 0.00 0.00 0.00 17 1007.1
20260903215031 83 129 2.6 9.6 0.00 0.00 0.00 20 1007.3
20260903214003 83 153 3.5 13.0 0.00 0.00 0.00 19 1007.5
20260903213012 83 256 3.5 15.6 0.00 0.00 0.00 19 1007.6
20260903211955 82 226 5.2 15.6 0.00 0.00 0.00 18 1007.8
20260903210923 83 155 4.3 14.8 0.00 0.00 0.00 19 1007.9
20260903205926 83 134 2.6 11.3 0.00 0.00 0.00 19 1007.9
20260903204855 82 188 2.6 16.5 0.00 0.00 0.00 19 1008.2
20260903202736 81 124 3.5 11.3 0.00 0.00 0.00 19 1008.3
20260903201719 81 126 2.6 13.0 0.00 0.00 0.00 22 1008.4